Westfield, MA

9:17 AM EDT on August 27, 2016 (GMT -0400)
Barnes Municipal

Weather History for KBAF - June, 2013

Change the Weather History Date:

Thursday, June 13, 2013

  Actual Average Record
Temperature  
Mean Temperature 54 °F -  
Max Temperature 57 °F 74 °F 91 °F (2005)
Min Temperature 50 °F 53 °F 46 °F (1974)
Degree Days  
Heating Degree Days 12    
Growing Degree Days 4 (Base 50)    
Moisture  
Dew Point 53 °F    
Average Humidity 92    
Maximum Humidity 97    
Minimum Humidity 88    
Precipitation  
Precipitation 1.10 in - - ()
Sea Level Pressure  
Sea Level Pressure 29.73 in    
Wind  
Wind Speed 4 mph (NE)    
Max Wind Speed 13 mph    
Max Gust Speed 20 mph    
Visibility 6 miles    
Events Rain    
Averages and records for this station are not official NWS values.
T = Trace of Precipitation, MM = Missing Value Source: NWS Daily Summary

Daily Weather History Graph

Daily Weather History Graph

Search for Another Location

Airport or City:

Trip Planner

Search our weather history database for the weather conditions in past years. The results will help you decide how hot, cold, wet, or windy it might be!

Date:

Astronomy

Jun. 13, 2013 Rise Set
Actual Time 5:14 AM EDT 8:28 PM EDT
Civil Twilight 4:39 AM EDT 9:02 PM EDT
Nautical Twilight 3:55 AM EDT 9:47 PM EDT
Astronomical Twilight 3:01 AM EDT 10:40 PM EDT
Moon 9:52 AM EDT (6/13) 11:28 PM EDT (6/13)
Length of Visible Light 16h 22m
Length of Day
15h 13m
Waxing Crescent, 21% of the Moon is Illuminated
Jun 13
Waxing Crescent
Jun 16
First Quarter
Jun 23
Full
Jun 30
Last Quarter
Jul 8
New

Hourly Weather History & Observations

Time (EDT) Temp. Dew Point Humidity Pressure Visibility Wind Dir Wind Speed Gust Speed Precip Events Conditions
12:53 AM 52.0 °F 51.1 °F 97% 29.83 in 10.0 mi SSW 3.5 mph - N/A   Clear
1:53 AM 52.0 °F 51.1 °F 97% 29.84 in 10.0 mi Calm Calm - N/A   Mostly Cloudy
2:53 AM 51.1 °F 48.9 °F 92% 29.82 in 7.0 mi Calm Calm - N/A   Clear
3:53 AM 52.0 °F 48.9 °F 89% 29.81 in 10.0 mi Calm Calm - N/A   Clear
4:53 AM 50.0 °F 48.9 °F 96% 29.83 in 10.0 mi Calm Calm - N/A   Partly Cloudy
5:53 AM 53.1 °F 51.1 °F 93% 29.81 in 10.0 mi Calm Calm - N/A   Overcast
6:53 AM 55.0 °F 52.0 °F 89% 29.83 in 10.0 mi NE 3.5 mph - N/A   Overcast
7:53 AM 55.9 °F 53.1 °F 90% 29.81 in 10.0 mi Calm Calm - 0.00 in   Overcast
8:53 AM 57.0 °F 54.0 °F 89% 29.79 in 10.0 mi Calm Calm - 0.00 in   Overcast
9:53 AM 57.0 °F 54.0 °F 89% 29.79 in 10.0 mi Calm Calm - 0.00 in Rain Light Rain
10:45 AM 57.2 °F 55.4 °F 94% 29.79 in 10.0 mi NNE 3.5 mph - 0.01 in Rain Light Rain
10:53 AM 57.9 °F 55.0 °F 90% 29.78 in 9.0 mi NE 4.6 mph - 0.01 in Rain Light Rain
11:53 AM 57.0 °F 55.0 °F 93% 29.81 in 2.0 mi Calm Calm - 0.09 in Rain Rain
12:07 PM 57.2 °F 55.4 °F 94% 29.77 in 2.0 mi NNE 8.1 mph - 0.07 in Rain Heavy Rain
12:53 PM 57.9 °F 55.9 °F 93% 29.74 in 2.0 mi NE 4.6 mph - 0.18 in Rain Rain
1:53 PM 57.9 °F 55.9 °F 93% 29.73 in 2.5 mi East 5.8 mph - 0.25 in Rain Rain
2:00 PM 57.2 °F 55.4 °F 94% 29.73 in 2.5 mi ESE 5.8 mph - 0.00 in Rain Light Rain
2:53 PM 57.0 °F 55.0 °F 93% 29.72 in 2.5 mi East 5.8 mph - 0.04 in Rain Light Rain
3:00 PM 57.2 °F 55.4 °F 94% 29.70 in 4.0 mi ENE 5.8 mph - 0.00 in   Overcast
3:53 PM 57.9 °F 55.0 °F 90% 29.71 in 2.5 mi East 5.8 mph - 0.01 in Rain Light Rain
3:55 PM 57.2 °F 55.4 °F 94% 29.71 in 2.5 mi ESE 3.5 mph - 0.00 in Rain Light Rain
4:53 PM 57.0 °F 55.0 °F 93% 29.69 in 2.5 mi ENE 5.8 mph - 0.05 in Rain Light Rain
5:00 PM 57.2 °F 55.4 °F 94% 29.69 in 2.0 mi East 8.1 mph - 0.00 in Rain Light Rain
5:32 PM 55.4 °F 53.6 °F 94% 29.69 in 1.0 mi NNE 9.2 mph - 0.02 in Rain Light Rain
5:53 PM 55.9 °F 54.0 °F 93% 29.70 in 1.0 mi NNE 11.5 mph - 0.05 in Rain Rain
6:00 PM 55.4 °F 53.6 °F 94% 29.69 in 2.5 mi NNE 9.2 mph - 0.02 in Rain Rain
6:53 PM 55.9 °F 53.1 °F 90% 29.69 in 2.0 mi NE 12.7 mph 19.6 mph 0.08 in Rain Light Rain
7:53 PM 55.0 °F 53.1 °F 93% 29.70 in 2.5 mi NE 8.1 mph - 0.05 in Rain Rain
8:00 PM 55.4 °F 53.6 °F 94% 29.69 in 3.0 mi NE 8.1 mph - 0.01 in Rain Rain
8:12 PM 53.6 °F 51.8 °F 94% 29.69 in 3.0 mi NNE 8.1 mph - 0.01 in Rain Light Rain
8:53 PM 54.0 °F 52.0 °F 93% 29.69 in 3.0 mi NE 6.9 mph - 0.03 in Rain Light Rain
9:53 PM 54.0 °F 51.1 °F 90% 29.69 in 9.0 mi NE 8.1 mph - 0.05 in Rain Light Rain
10:43 PM 53.6 °F 51.8 °F 94% 29.67 in 6.0 mi NNE 9.2 mph - 0.08 in Rain Rain
10:53 PM 54.0 °F 52.0 °F 93% 29.67 in 7.0 mi NNE 11.5 mph - 0.10 in Rain Rain
11:01 PM 53.6 °F 51.8 °F 94% 29.66 in 7.0 mi NNE 10.4 mph - 0.01 in Rain Rain
11:12 PM 53.6 °F 50.0 °F 88% 29.66 in 7.0 mi NNE 9.2 mph - 0.03 in Rain Rain
11:14 PM 53.6 °F 50.0 °F 88% 29.66 in 7.0 mi NNE 11.5 mph - 0.03 in Rain Rain
11:18 PM 53.6 °F 50.0 °F 88% 29.66 in 7.0 mi North 11.5 mph - 0.04 in Rain Rain
11:53 PM 52.0 °F 50.0 °F 93% 29.67 in 5.0 mi NNE 12.7 mph - 0.11 in Rain Rain